Theta_e
299 297 295 296 296 296 298 302 303 302 303 301 296 297 297 298 297 297 296 298 298 297 296 296 297 297 296 297 297 297 298 301 301 303 311 310 310 308 306 308 304 306 302 311 311 312 309 311 311 312 311 308 308 308
299 298 296 296 295 296 298 302 303 302 303 301 296 297 297 298 297 297 296 297 296 297 294 296 296 296 297 297 295 297 298 300 303 301 301 303 305 305 306 307 307 302 305 305 310 310 310 310 311 310 309 306 307 308
299 298 297 296 295 296 297 302 303 302 303 301 296 296 297 297 297 297 298 297 296 296 293 292 295 298 298 297 297 297 295 298 300 303 304 305 309 310 308 305 302 306 307 311 311 310 309 310 309 307 306 307 308 306
300 298 297 296 295 296 298 302 303 303 303 300 294 296 297 298 297 297 297 296 296 296 297 295 297 299 299 299 299 297 299 300 300 306 308 308 309 307 311 307 308 308 309 311 312 310 307 308 307 306 305 307 306 307
298 298 298 297 296 296 299 302 303 303 303 300 293 297 297 297 297 297 297 297 297 295 298 297 297 300 300 300 300 299 297 297 303 308 308 310 310 310 309 309 311 309 311 314 314 312 310 307 306 306 306 306 306 307
300 299 297 296 296 296 300 302 303 303 303 299 293 297 297 297 297 297 298 300 298 296 298 301 297 297 300 301 304 301 298 297 304 308 309 309 308 309 309 311 310 310 311 310 311 310 308 305 306 305 307 307 306 307
300 299 298 297 296 298 300 302 303 303 303 297 295 295 297 297 297 297 298 300 299 296 299 303 300 297 300 301 300 302 300 304 306 306 309 310 310 309 307 311 309 309 310 311 308 304 305 304 305 306 306 305 305 306
301 300 299 297 297 299 300 302 303 303 302 292 294 293 297 298 298 298 303 300 299 299 301 303 301 299 300 301 302 301 307 308 309 311 310 310 310 309 311 304 304 307 310 306 304 304 305 304 306 306 305 305 306 305
303 301 300 297 298 299 300 302 303 303 298 291 293 298 299 298 299 303 303 301 301 300 300 300 302 300 299 300 300 301 307 311 309 311 311 310 311 307 306 303 303 305 308 305 304 303 304 303 305 306 305 305 305 305
303 301 299 298 298 299 300 302 302 300 294 292 298 300 304 303 304 303 301 303 301 301 301 302 302 301 300 300 302 303 308 312 313 312 311 308 310 303 301 301 301 303 304 303 303 305 305 305 307 306 306 306 305 303
303 300 299 297 299 300 302 302 301 297 291 293 294 298 297 302 301 297 299 306 303 303 301 301 301 300 298 301 302 306 310 309 314 313 313 310 305 302 301 301 301 302 303 304 302 304 304 304 306 305 305 305 302 302
303 300 298 297 298 301 302 301 298 291 292 293 295 296 297 298 299 301 301 306 304 304 303 301 299 299 297 298 307 305 309 311 314 306 312 307 303 301 300 300 300 301 307 303 302 303 304 303 305 304 304 304 302 301
302 300 298 298 299 301 301 300 293 292 294 297 297 299 299 299 301 304 303 301 299 298 299 298 295 293 294 302 300 305 309 309 307 306 309 305 301 300 299 298 299 301 306 302 303 303 302 303 304 303 303 302 301 301
302 299 298 299 300 301 300 295 291 293 296 299 302 298 300 301 302 298 297 296 295 297 296 292 293 294 293 297 303 305 308 304 301 301 302 302 299 298 298 298 299 302 308 303 302 303 302 303 303 303 302 302 302 301
300 299 299 299 301 301 297 292 292 294 297 301 300 298 300 298 295 295 294 294 294 292 292 293 293 295 300 303 301 302 299 298 301 297 301 299 297 297 296 297 298 301 308 305 301 302 302 303 303 302 302 301 301 301
300 300 300 301 300 299 293 293 294 295 298 301 300 298 296 295 295 295 294 295 293 293 291 294 299 300 301 297 295 300 293 297 296 299 298 297 297 296 294 296 298 303 308 308 302 302 302 302 302 302 301 300 300 300
300 299 300 300 298 294 292 294 296 298 301 301 299 296 295 294 295 294 294 296 294 294 296 297 300 299 298 293 296 297 292 295 299 296 296 296 296 296 295 297 299 303 309 307 308 304 302 302 302 302 301 300 299 299
299 300 300 298 294 294 294 295 299 301 301 298 297 296 294 295 296 297 295 294 295 295 294 299 295 296 298 291 292 290 297 297 295 295 295 296 297 296 296 296 298 300 301 301 305 306 304 301 300 301 301 301 300 299
300 299 298 297 292 295 297 296 297 301 300 297 296 295 296 295 294 294 293 294 293 293 293 293 295 291 291 291 294 295 293 294 295 295 295 295 295 295 294 295 296 297 298 298 300 300 304 303 302 301 301 301 300 299
300 298 296 292 296 298 301 300 299 297 298 298 296 297 295 295 293 292 292 291 291 292 294 294 294 293 292 293 296 293 293 294 294 296 294 294 294 294 294 295 295 295 295 296 297 297 299 300 300 303 302 300 300 299
294 293 294 294 293 294 297 298 297 297 296 296 297 297 295 294 294 293 292 290 292 292 292 291 292 293 296 295 294 294 294 293 293 295 295 293 292 293 293 293 294 294 294 294 294 295 296 297 297 298 302 300 300 299
294 293 291 291 295 296 296 297 297 296 296 297 297 297 296 296 295 293 291 292 292 290 290 292 294 297 292 293 295 293 292 292 291 294 295 293 290 291 292 293 293 293 292 292 293 294 294 295 295 297 300 300 300 299
293 294 295 296 299 297 297 297 297 297 298 297 297 298 298 296 294 292 293 289 287 290 293 294 295 295 294 295 292 289 289 290 290 292 292 292 289 289 290 291 292 291 290 290 291 292 292 292 294 295 298 301 300 300
295 297 298 299 297 297 298 297 297 297 297 296 299 300 299 296 293 293 293 288 287 291 292 294 294 292 293 293 288 287 287 287 288 291 291 290 288 288 288 290 290 290 288 289 289 289 290 291 291 293 295 298 299 300
296 296 295 294 298 298 299 299 299 299 299 298 300 299 298 295 294 295 295 288 289 289 290 292 292 292 289 288 286 286 286 286 286 286 288 286 286 286 286 287 288 289 287 287 288 288 289 289 290 290 292 294 296 297
294 295 296 298 298 299 300 300 300 299 299 299 300 298 295 296 299 299 295 289 287 288 288 290 288 288 287 288 285 285 285 285 287 286 285 285 284 284 284 285 286 287 287 286 287 287 287 287 288 289 290 291 293 296
293 295 295 296 298 299 298 298 298 298 300 300 299 298 297 297 298 294 290 288 288 291 293 293 291 290 288 287 286 286 285 285 285 284 284 284 283 283 284 284 284 285 286 285 285 285 285 285 285 286 288 289 291 293
295 296 297 296 296 296 299 298 299 299 298 299 299 300 299 298 295 291 290 291 293 293 292 292 292 292 289 287 286 286 285 285 284 284 284 283 283 282 282 284 284 284 284 284 283 283 283 283 283 285 287 289 290 292
296 295 296 297 297 297 298 299 299 298 298 299 299 299 296 293 288 288 290 291 292 292 289 288 287 288 286 285 285 284 284 285 284 283 282 281 281 281 281 283 283 282 282 282 283 282 282 283 283 284 285 286 287 289
295 295 296 297 298 299 299 297 297 295 294 294 293 291 290 287 287 289 290 291 290 289 288 287 286 286 285 285 283 283 283 283 283 282 280 280 280 280 281 282 282 282 282 282 282 283 283 282 282 282 283 283 284 285
294 295 297 298 300 299 295 294 294 293 293 291 290 290 289 288 288 287 288 289 289 288 287 286 286 286 285 284 284 282 282 282 282 282 282 281 281 280 280 281 281 282 282 282 281 281 280 279 279 279 279 280 281 282
295 297 298 299 298 296 297 296 294 293 292 292 291 289 288 287 287 286 287 287 287 286 286 286 286 285 285 285 284 284 283 282 282 282 281 281 280 280 279 281 281 281 281 281 281 280 280 279 277 277 277 278 279 279
295 296 297 298 298 299 298 296 293 293 293 293 292 291 288 287 285 285 287 287 288 287 286 285 285 285 284 284 283 282 282 282 281 281 280 279 279 279 278 280 280 280 280 280 279 279 279 279 278 278 278 277 276 277
Wind_Speed
24 22 19 18 17 16 15 14 11 13 13 14 12 9 9 10 8 9 6 2 1 3 6 5 3 4 1 2 3 4 4 2 3 4 3 3 2 2 2 2 3 4 2 3 3 3 6 1 6 2 5 10 15 19
24 22 20 18 17 17 15 14 12 12 12 14 12 9 9 9 8 7 4 2 9 5 6 13 27 29 25 18 4 3 3 1 2 1 2 1 2 3 2 3 1 2 6 3 5 5 3 5 11 15 10 10 18 18
25 22 21 18 18 17 15 13 12 12 12 13 13 10 10 9 8 7 11 8 7 3 5 3 5 2 9 21 25 3 3 4 3 3 2 2 3 1 2 4 2 4 2 3 3 4 7 10 15 8 7 13 13 18
25 24 22 18 18 17 15 12 12 13 12 13 13 11 10 10 9 10 12 8 4 3 3 6 6 11 6 7 16 29 11 1 1 2 3 2 3 3 2 4 5 6 3 4 6 9 7 12 8 10 8 12 17 18
30 26 26 18 17 15 15 12 12 12 13 14 14 11 10 9 9 12 15 14 13 3 3 5 20 5 7 10 15 22 22 6 3 2 3 3 2 3 3 3 3 3 5 3 4 14 7 11 9 12 10 17 17 16
32 26 25 19 18 17 13 12 11 12 14 14 14 11 8 8 7 5 2 1 7 13 2 3 5 5 15 19 9 3 11 3 3 2 2 3 1 2 2 2 7 4 6 12 6 10 6 10 11 7 12 17 15 14
33 31 28 19 19 19 13 11 11 13 13 17 14 12 10 7 6 4 2 1 6 12 2 3 5 5 10 7 3 2 6 2 3 2 3 3 2 3 2 2 16 22 14 14 6 6 5 10 12 9 13 14 15 12
37 35 30 23 21 18 13 11 12 13 13 16 14 13 12 8 7 8 3 11 14 3 3 2 4 5 6 4 3 0 2 2 3 2 1 2 0 1 2 17 20 19 16 5 9 8 7 11 9 12 14 11 12 12
36 31 30 25 23 17 12 12 13 13 12 13 12 5 4 5 5 2 2 4 11 5 1 0 3 3 4 3 3 3 1 2 1 2 2 1 3 5 8 17 19 18 13 10 9 9 11 14 13 14 14 11 13 11
37 30 30 27 21 17 14 13 14 11 8 9 3 3 2 4 5 9 2 2 2 1 1 2 1 4 1 2 3 3 1 2 1 2 1 2 3 8 16 19 17 17 15 12 6 14 15 15 12 14 15 11 10 11
36 31 30 27 20 19 16 15 12 5 4 3 4 2 2 8 4 2 2 2 1 2 3 3 4 4 2 2 3 2 3 2 2 2 2 2 3 17 22 22 20 18 13 11 5 5 10 12 10 13 14 12 12 12
37 32 28 23 23 20 17 16 8 4 2 2 3 2 3 2 1 2 2 2 3 2 3 3 4 4 3 1 2 3 3 2 1 5 2 2 6 18 21 22 22 19 16 8 5 6 10 10 8 12 11 12 12 15
36 32 28 22 19 19 18 13 8 5 3 3 2 2 2 1 1 3 4 1 1 2 3 2 4 1 3 1 2 2 3 3 3 4 3 2 11 17 19 18 20 20 20 6 5 8 13 13 13 15 11 16 16 17
34 30 24 22 20 21 16 12 9 6 4 3 3 2 4 3 3 3 4 3 3 2 3 1 2 1 2 4 2 3 3 3 3 4 3 6 17 18 17 16 16 19 18 9 7 7 7 9 8 13 16 17 18 17
33 27 22 21 21 18 14 13 10 7 4 3 3 3 4 1 1 2 2 1 1 1 1 2 1 2 3 3 3 2 5 3 2 1 3 10 16 15 17 18 17 16 15 9 6 5 6 9 10 11 17 18 20 21
27 20 18 21 21 16 16 12 8 5 2 2 2 2 1 3 1 1 1 2 0 0 2 2 2 3 4 1 4 4 3 2 3 3 8 10 14 14 16 17 16 16 13 10 11 6 6 8 8 8 14 17 18 19
28 6 19 23 19 19 17 6 6 4 3 3 2 1 2 2 3 2 3 2 1 2 2 1 3 1 1 3 2 1 2 2 5 7 7 11 13 14 15 17 22 22 16 16 16 13 6 7 10 12 9 15 16 16
7 17 24 26 27 17 8 5 2 3 4 3 3 3 2 2 4 1 1 1 2 2 2 2 3 3 2 3 2 2 2 4 4 6 7 10 14 19 19 17 23 23 20 20 21 19 17 10 8 5 11 15 18 19
26 28 29 29 26 7 4 5 4 3 3 2 3 3 3 3 3 3 2 4 5 4 4 2 3 2 2 1 1 3 3 3 6 8 7 13 16 18 19 21 23 25 24 22 20 19 18 18 14 13 11 12 10 15
24 24 29 30 10 3 3 2 5 2 3 3 3 3 3 3 3 3 3 3 3 2 3 2 2 2 2 1 0 2 3 4 5 6 8 9 14 15 16 16 17 20 20 22 20 24 22 20 21 21 16 10 10 10
27 22 21 13 3 1 1 1 2 3 3 3 3 3 3 2 2 1 2 1 3 2 2 1 3 3 3 3 4 6 5 7 3 3 4 7 17 14 14 15 17 18 18 18 16 19 20 18 22 23 19 9 7 8
16 15 8 5 1 1 2 3 2 1 2 3 3 3 3 3 3 2 3 3 2 2 3 3 3 4 3 2 1 6 7 8 12 8 7 10 7 9 11 14 15 12 16 17 19 17 19 21 24 22 20 11 3 5
16 10 5 3 2 2 4 3 2 2 4 4 2 4 2 2 2 3 3 1 2 3 5 4 7 7 4 2 5 8 9 8 8 10 11 9 14 14 14 15 15 14 14 17 20 20 20 24 24 23 21 20 8 5
15 6 4 5 4 3 2 2 1 2 3 3 4 4 3 3 2 2 2 2 2 4 3 6 8 3 2 6 3 5 9 8 6 5 10 12 11 14 15 14 14 14 18 18 18 20 21 22 23 21 20 17 17 11
3 4 4 3 3 3 4 3 3 2 3 3 4 3 3 3 2 2 4 3 3 4 4 9 7 3 3 3 2 3 6 6 4 3 9 11 15 13 14 15 13 12 20 19 19 20 20 20 20 20 19 16 16 15
4 4 5 5 3 4 4 4 5 4 3 3 2 3 2 3 3 3 3 5 4 4 4 6 5 3 2 5 4 1 5 5 1 3 5 9 14 13 10 10 12 15 21 21 19 20 20 20 19 20 18 18 17 13
3 3 2 2 1 1 2 2 2 3 4 4 4 3 3 3 5 3 1 3 3 9 21 18 13 9 11 11 8 5 4 7 3 6 7 8 11 16 14 12 14 18 23 21 20 19 19 20 20 19 18 18 15 13
2 1 3 3 2 1 2 3 4 5 4 3 4 4 7 5 3 3 3 8 14 19 18 13 10 8 18 14 10 8 9 7 10 4 3 9 9 15 20 17 17 15 18 19 20 18 18 18 17 18 16 15 16 16
2 1 2 3 2 1 3 3 4 1 1 3 3 2 3 2 3 1 4 16 22 21 16 15 15 22 20 16 12 10 10 12 13 6 6 3 8 14 24 22 22 17 21 22 22 21 21 16 17 16 16 16 14 15
2 3 2 2 3 5 2 2 3 2 3 3 4 3 3 3 9 10 18 19 19 18 19 22 28 23 19 15 11 8 8 9 11 10 2 2 8 17 20 20 21 21 22 22 23 24 25 23 23 21 20 20 22 22
3 3 2 3 3 2 4 7 7 4 3 4 5 4 3 3 7 12 13 19 22 24 25 20 15 14 14 13 11 8 4 4 6 7 7 8 11 16 17 15 16 17 18 19 21 23 24 21 19 20 21 22 22 23
3 4 3 3 2 3 1 3 2 2 2 2 2 2 2 3 3 4 4 13 20 19 18 20 18 13 10 10 9 7 7 5 5 7 7 9 12 15 14 13 13 14 15 16 18 20 21 22 21 22 21 22 22 22
2 3 3 2 3 3 3 3 3 3 3 2 2 2 2 2 3 2 3 6 13 19 19 17 16 14 14 13 10 8 5 5 6 7 8 9 12 13 13 12 12 13 14 16 17 18 20 21 23 25 26 26 25 25
Wind_Direction
260 261 263 270 274 279 286 292 294 302 317 327 329 334 335 331 338 335 299 230 56 257 275 248 243 201 300 174 193 279 353 358 336 20 335 358 331 295 306 255 195 193 157 267 265 255 280 52 310 256 269 292 304 298
257 260 262 265 270 274 281 286 292 298 312 322 324 327 323 319 322 317 283 251 306 231 254 285 276 257 241 231 143 264 207 170 254 6 328 330 325 338 10 293 77 297 190 216 195 246 241 304 292 280 270 276 304 300
241 251 258 262 266 270 275 281 285 293 305 318 320 318 313 312 308 294 282 299 295 275 296 312 240 284 260 234 228 186 269 202 239 213 232 256 274 252 273 256 311 291 172 247 311 260 269 313 290 271 259 291 311 309
238 245 245 250 260 265 269 277 284 289 303 317 317 316 308 307 304 293 282 268 251 271 291 280 306 305 275 231 216 215 236 234 212 202 236 232 253 192 249 259 270 265 255 255 251 279 296 270 272 282 283 299 313 304
231 239 242 238 252 258 263 271 278 292 302 314 312 307 306 309 306 294 282 271 237 189 285 287 307 289 289 267 244 231 218 220 250 236 239 232 245 233 258 256 251 202 239 272 314 307 308 307 322 314 305 314 309 306
225 233 236 235 240 241 252 266 283 289 297 309 300 296 300 302 302 316 305 347 206 199 274 297 288 291 311 326 333 166 190 168 219 227 245 240 231 188 264 249 254 264 315 302 278 296 277 307 300 312 311 315 316 315
225 224 230 231 239 237 245 261 279 285 297 298 295 298 294 286 255 216 225 145 160 186 257 289 307 287 314 321 337 72 147 186 185 221 225 259 238 204 254 294 335 321 312 309 337 320 317 325 314 328 322 323 316 313
224 226 227 225 233 229 240 258 272 281 296 299 302 300 284 260 254 270 214 205 199 287 272 319 288 329 6 308 319 273 180 215 213 258 248 238 118 260 347 336 320 335 325 346 357 326 278 313 324 339 334 320 330 340
223 223 220 217 226 224 233 255 265 273 285 303 308 290 115 185 191 196 125 115 177 230 274 187 320 282 353 288 276 314 250 254 187 241 244 111 68 37 320 322 327 330 330 316 309 330 329 342 331 349 337 344 345 342
220 218 213 215 219 216 226 249 258 268 279 306 197 184 196 159 125 134 172 197 184 205 212 245 202 269 44 325 298 333 268 279 269 243 104 98 111 6 342 338 331 326 322 329 333 340 337 331 333 345 341 342 342 342
216 212 209 214 213 213 226 243 249 262 273 190 194 191 117 145 147 78 197 230 147 238 209 241 243 264 284 230 254 223 293 286 274 43 283 70 8 344 343 337 333 329 320 314 304 344 322 318 323 342 340 355 355 352
211 202 205 209 215 228 214 236 218 185 201 188 159 146 131 149 113 194 202 156 210 245 210 217 246 216 274 214 278 326 287 313 326 306 28 38 349 341 338 335 333 334 322 313 0 345 305 327 348 349 348 357 355 353
206 198 199 204 213 204 221 217 172 187 165 134 156 148 127 166 131 213 180 240 256 212 235 271 311 277 342 24 293 298 351 347 306 26 26 58 333 335 334 335 333 330 334 343 347 353 3 356 2 1 358 3 2 5
199 194 197 199 208 210 214 175 164 178 188 197 174 163 185 188 233 185 161 184 232 189 280 168 270 359 343 19 345 324 349 358 43 20 339 339 335 327 327 331 336 333 329 329 344 360 1 4 7 5 4 6 7 10
188 193 197 203 196 210 185 160 173 188 194 215 155 196 203 194 75 141 122 76 275 135 50 62 24 87 15 34 13 355 14 37 49 334 294 330 323 324 328 332 331 331 330 329 333 346 4 10 11 11 11 17 19 8
174 175 189 189 194 182 157 159 169 188 230 219 210 147 39 86 356 63 110 254 329 28 107 53 71 66 46 50 42 17 63 11 302 302 327 322 322 326 327 328 326 327 330 342 330 320 12 17 16 14 23 25 28 26
164 152 179 187 171 153 159 152 174 207 224 199 230 151 117 121 163 183 178 241 277 75 87 91 68 139 33 47 44 49 150 261 317 325 325 320 323 329 327 331 340 348 358 4 355 351 5 6 20 28 25 14 24 23
135 159 168 158 146 143 175 199 231 209 217 215 166 175 143 107 125 123 242 350 76 98 83 102 108 66 64 123 270 275 349 338 302 312 314 317 333 337 342 336 342 353 354 6 6 6 5 358 7 12 19 14 21 19
152 155 160 155 153 151 152 185 204 217 209 161 106 94 101 105 62 72 76 58 76 92 97 57 77 106 171 164 70 355 325 300 318 319 319 341 338 344 344 347 352 356 357 358 4 6 3 21 18 3 359 7 15 21
146 153 148 156 159 146 154 182 189 182 176 171 99 107 100 108 111 84 64 48 59 60 57 71 129 145 119 130 80 245 273 324 326 327 346 346 345 350 351 354 355 352 353 358 8 12 5 4 5 356 350 5 25 26
119 140 157 171 200 249 284 179 180 191 135 125 124 113 96 85 89 81 85 23 63 78 122 200 113 110 130 166 236 268 324 346 337 338 334 338 338 349 351 358 1 4 4 358 357 357 3 359 346 344 342 350 34 49
132 140 122 172 212 204 270 232 172 120 97 131 110 103 116 156 159 160 140 64 96 178 170 145 137 126 142 190 52 35 13 9 357 334 312 344 343 348 353 359 1 6 6 355 350 349 347 350 348 348 357 357 27 53
126 119 97 153 187 146 261 143 152 182 133 172 99 106 129 124 153 124 76 131 215 202 169 131 140 141 152 137 97 38 23 13 8 8 0 359 346 346 349 358 5 8 2 353 347 348 347 349 347 349 354 2 349 338
134 156 168 179 166 199 178 190 165 114 101 136 146 112 143 135 154 69 153 203 225 177 141 151 150 144 111 99 56 18 5 2 360 7 10 3 350 347 350 350 1 12 3 344 349 349 346 347 348 350 351 357 1 351
121 197 141 196 203 159 172 144 162 129 151 156 125 125 158 134 112 171 187 220 167 177 179 160 165 137 124 122 99 27 15 9 26 51 24 16 7 354 353 351 352 9 3 352 351 349 345 342 342 342 340 345 350 342
176 195 159 182 163 175 178 154 168 165 141 147 130 120 120 115 156 220 213 179 176 167 174 166 159 130 104 146 143 109 19 17 92 76 30 24 22 14 347 343 343 350 357 351 346 344 339 337 334 334 330 331 334 338
153 200 205 246 180 157 127 88 113 123 165 151 157 139 125 150 220 232 148 177 142 170 179 181 172 151 148 141 128 107 61 39 66 93 69 48 39 26 13 350 338 332 340 344 346 344 336 333 330 327 323 320 320 324
217 200 162 187 177 184 151 145 154 175 172 156 116 167 172 186 199 192 192 172 154 160 162 167 171 149 149 136 126 104 68 66 60 70 224 31 29 15 10 6 2 355 345 346 349 346 341 335 329 327 324 320 317 325
189 220 152 152 183 194 214 194 189 137 97 131 115 113 111 56 9 338 121 142 143 140 130 119 121 141 129 121 109 88 69 53 53 51 33 350 345 355 360 1 1 356 355 354 0 360 0 0 348 343 340 337 333 331
187 166 159 200 188 205 184 120 82 68 36 78 101 97 75 38 17 114 132 137 139 140 146 143 145 145 141 137 124 100 77 59 49 47 61 344 343 351 357 359 358 1 2 4 5 5 12 15 15 15 9 6 1 360
167 166 212 186 204 106 114 109 81 56 37 51 37 71 102 133 63 59 120 139 141 141 139 139 144 156 155 153 150 143 131 73 42 31 25 13 3 1 1 1 1 4 6 10 13 14 12 14 13 10 9 8 3 1
165 194 208 156 105 120 76 58 82 79 73 68 89 79 62 66 75 8 53 144 141 134 143 146 141 143 148 151 158 139 121 97 37 18 10 6 4 3 3 6 11 15 18 22 24 23 23 23 18 17 12 11 11 9
160 178 208 133 126 141 120 104 78 84 81 93 93 88 72 100 134 181 99 168 162 149 146 140 132 133 135 129 125 119 93 65 41 27 13 2 1 3 8 14 19 23 26 32 35 34 34 34 34 33 32 29 24 21